Location: Poughquag
(41.6090°N, 73.6820°W)
Time: 03:13:11
(UTC-04:00)

Hubble Space Telescope - Visible Passes

Search period start: 17 June 2019 00:00
Search period end: 27 June 2019 00:00
Orbit: 536 x 540 km, 28.5° (Epoch: 16 June)

Date Brightness Start Highest point End Pass type
(mag) Time Alt. Az. Time Alt. Az. Time Alt. Az.
17 Jun 2.8 04:42:49 10° SSW 04:44:29 12° S 04:46:09 10° SSE visible
18 Jun 2.8 04:32:29 10° SSW 04:33:49 11° S 04:35:10 10° S visible
19 Jun 2.9 04:22:28 10° SSW 04:23:09 10° S 04:23:50 10° S visible
26 Jun 2.9 21:55:15 10° SSW 21:56:04 11° S 21:56:04 11° S visible
